Wetbulb
69.38 72.34 74.30 74.15 73.51 72.54 71.66 70.45 69.71 69.23 68.48 68.10 68.16 67.99 68.04 67.78 67.69 67.60 67.47 67.29 67.13 67.01 66.94 66.62 66.34 66.20 66.10 65.99 65.79 65.45 65.18 65.16 65.26 65.06 64.90 65.50 66.57 67.97 69.39 69.77 68.48 67.54 68.85
71.08 72.19 74.15 74.35 73.13 72.03 70.55 69.98 68.82 68.07 67.90 67.88 67.84 67.75 67.45 67.29 67.00 66.64 66.23 65.73 65.44 65.48 65.35 65.35 65.03 64.73 64.67 64.75 64.69 64.34 63.97 63.41 62.81 62.41 63.99 64.63 65.04 67.17 67.98 68.58 69.62 67.94 69.95
70.94 72.20 72.79 73.72 72.70 70.83 70.12 68.81 67.85 67.64 67.83 67.69 67.39 67.16 66.67 66.18 65.61 65.23 65.16 65.32 65.37 65.20 65.04 64.76 64.42 64.34 64.06 63.95 63.80 63.62 62.91 62.14 62.01 62.81 64.14 60.34 60.72 66.84 67.36 68.56 69.38 69.71 69.76
71.29 71.68 71.48 72.66 71.36 69.99 68.90 67.84 67.55 67.78 67.55 67.15 66.55 65.94 65.52 65.25 65.13 65.14 65.00 64.60 64.39 64.30 63.65 63.21 63.21 63.84 63.40 62.72 63.00 62.36 61.94 62.20 63.31 64.05 57.83 64.90 67.70 69.31 69.74 69.92 69.71 69.61 69.50
70.17 70.45 70.60 71.64 69.92 68.98 68.01 67.52 67.83 67.42 66.92 66.23 65.45 65.25 65.25 65.22 64.71 64.36 63.94 63.60 63.55 62.77 62.14 61.98 61.75 61.57 61.56 61.39 61.60 61.67 62.13 63.14 63.01 58.65 62.56 64.12 66.02 68.76 69.69 69.17 68.51 68.44 68.63
68.85 69.21 70.32 70.29 68.90 68.07 67.47 67.62 67.37 66.94 65.84 65.33 65.11 65.14 64.96 64.45 63.95 63.53 62.75 61.82 61.70 61.55 61.22 60.77 60.62 60.31 60.29 60.04 59.95 60.23 61.19 61.76 59.70 55.81 59.18 62.38 62.23 66.96 67.48 67.35 67.34 67.06 67.07
67.80 68.04 68.31 69.13 68.14 67.61 67.27 67.11 67.00 66.30 65.34 65.14 65.21 64.81 64.06 63.46 62.76 61.65 61.05 60.53 60.22 59.93 59.62 59.21 59.06 58.88 58.82 58.74 58.47 58.40 59.56 60.65 55.03 55.84 57.35 58.75 60.70 65.55 65.53 65.25 65.65 66.51 66.98
66.67 66.82 66.76 67.99 67.84 67.48 67.15 66.51 66.27 65.46 65.21 64.97 64.45 63.47 62.98 62.67 61.42 60.30 59.77 59.55 59.43 59.17 58.75 58.45 57.85 57.21 56.79 56.54 56.77 57.37 58.84 60.22 54.52 56.13 56.91 57.71 64.53 64.38 64.43 64.62 64.52 64.19 64.29
66.01 64.96 64.56 64.98 66.08 66.91 66.81 66.52 65.77 65.03 64.52 63.98 63.11 62.04 61.66 60.54 59.37 59.27 58.83 58.70 58.81 58.52 58.14 57.59 57.01 56.60 56.70 56.68 56.47 57.30 58.32 60.26 51.25 56.62 58.85 57.97 64.38 64.17 63.83 63.43 63.41 62.92 62.63
64.38 63.35 62.55 62.57 62.30 61.24 62.78 65.82 65.43 64.33 63.17 62.61 61.70 60.76 60.22 59.78 58.68 57.13 56.82 57.19 57.50 57.25 57.09 56.84 57.10 56.73 55.89 55.56 56.46 57.92 59.49 55.45 53.65 56.31 56.82 58.27 62.50 62.78 62.70 63.37 62.12 62.12 62.29
63.09 62.37 61.67 60.71 59.34 58.96 59.98 62.20 63.21 63.48 62.50 61.30 60.53 61.10 57.70 50.26 48.68 50.94 55.05 55.42 55.54 55.47 55.35 55.94 56.82 57.56 56.61 56.23 56.39 58.31 54.31 47.22 53.97 55.21 55.14 60.58 60.96 61.91 61.90 62.50 62.68 63.15 64.17
60.88 60.60 60.67 58.97 57.63 58.62 59.95 57.09 56.97 58.85 55.62 53.39 53.53 54.66 52.09 46.31 46.23 48.32 52.55 55.41 53.74 53.39 54.45 56.34 56.74 56.27 52.02 46.09 45.77 50.63 45.19 45.65 52.42 54.14 54.66 59.19 59.91 60.57 61.01 61.09 62.14 62.13 63.19
61.38 60.65 59.15 56.82 57.72 56.98 56.94 55.07 54.78 54.29 52.61 51.82 49.79 50.55 45.37 45.17 45.24 44.29 44.33 45.92 46.13 51.02 46.81 48.23 47.05 46.53 45.16 45.53 45.60 44.98 45.81 45.05 50.73 53.72 57.32 58.65 58.80 59.58 60.38 60.10 60.75 61.53 61.48
60.87 59.98 56.61 55.93 55.16 53.43 55.37 53.91 52.30 51.66 50.45 49.36 48.90 47.90 46.75 45.84 44.62 44.24 44.08 44.98 45.10 45.44 45.33 45.48 45.53 46.23 46.39 46.21 44.76 45.00 45.18 44.68 46.93 53.16 56.39 59.02 58.05 58.65 59.22 59.37 59.05 58.88 58.94
60.39 57.58 54.49 54.51 53.42 54.04 53.73 52.06 51.34 50.91 49.72 48.68 48.07 48.62 47.75 46.65 45.16 44.96 45.06 45.32 45.26 45.90 45.80 45.88 46.08 46.69 46.51 46.74 46.62 45.33 45.03 44.48 43.78 52.21 52.93 58.29 57.62 57.15 57.68 57.80 57.75 57.50 57.44
60.59 56.78 54.51 54.63 54.09 53.33 52.54 51.02 51.41 51.03 49.47 48.32 47.53 47.91 48.66 47.36 45.94 45.88 45.95 46.32 46.36 46.36 46.66 46.71 46.26 46.55 46.38 46.27 46.74 45.63 44.69 45.35 45.05 49.83 52.40 53.83 57.36 56.49 56.54 56.64 56.49 56.44 56.85
60.17 56.50 54.29 54.43 54.61 53.63 52.52 51.61 51.39 51.14 51.15 48.42 47.89 47.78 48.44 48.14 46.86 47.14 47.14 46.88 47.22 47.65 48.13 47.77 47.65 47.26 46.62 47.15 45.65 45.92 46.41 45.32 44.83 46.87 51.75 51.92 53.25 56.44 56.30 56.06 55.87 55.85 55.88
58.82 55.56 54.94 56.70 54.58 53.42 52.08 52.03 51.88 51.63 50.77 48.98 47.94 47.60 48.48 48.77 48.25 47.66 48.15 47.78 48.22 48.60 47.95 47.32 46.59 46.06 45.15 44.97 44.17 44.44 45.48 46.01 45.96 48.37 50.46 51.06 50.64 51.01 53.77 54.97 55.26 55.03 54.21
58.36 55.45 54.43 54.41 54.16 53.11 52.20 52.15 51.99 51.73 51.01 49.76 48.66 47.94 48.48 49.68 49.87 48.92 48.99 48.64 49.01 48.70 47.74 47.53 46.45 45.43 43.94 43.59 44.76 44.50 45.17 45.35 47.36 49.71 49.10 49.96 50.54 49.57 49.23 52.72 52.82 53.44 52.89
57.95 56.16 54.39 53.83 53.55 52.74 52.08 51.99 51.60 51.49 50.96 51.10 49.91 49.43 49.26 49.31 50.05 49.56 49.42 49.47 49.41 48.28 47.48 46.71 45.52 45.25 43.52 42.14 45.65 45.68 43.90 45.13 45.55 44.37 45.09 49.37 47.42 46.65 46.06 45.85 44.48 44.99 50.48
57.14 54.87 53.30 53.38 52.53 52.88 51.53 51.48 50.96 50.12 50.74 51.00 51.02 51.45 50.68 50.23 50.44 49.65 49.48 49.14 48.73 48.08 46.93 46.42 45.85 44.23 43.17 41.46 40.19 41.23 43.20 43.19 42.88 42.02 43.38 44.25 45.39 45.84 45.21 44.48 42.50 41.13 42.29
55.59 54.95 52.93 52.69 53.11 53.42 52.00 51.03 51.22 50.87 51.00 51.49 51.87 51.92 52.38 51.53 51.20 50.56 49.69 49.10 48.84 48.18 46.79 45.96 44.73 43.16 42.91 41.23 39.24 39.25 37.14 41.10 39.58 42.52 42.65 43.29 42.07 43.66 43.66 42.98 41.34 41.49 39.94
54.39 53.32 53.11 52.19 53.49 52.96 52.78 52.25 51.70 50.99 51.04 50.67 50.40 50.32 51.66 52.26 52.32 51.20 50.29 49.33 48.80 48.24 46.25 45.24 44.00 42.33 41.32 41.61 40.43 38.75 34.27 34.49 34.93 39.04 40.18 40.14 40.44 39.86 39.65 40.91 41.44 41.11 40.41
53.59 53.50 53.45 53.15 53.38 53.50 52.65 52.60 51.44 50.19 49.35 49.97 49.94 50.56 50.85 51.91 51.90 51.66 50.80 49.56 48.92 48.20 46.22 44.44 45.33 42.59 41.20 38.96 40.75 42.14 39.20 37.82 33.74 32.40 37.53 38.99 39.13 39.91 38.64 38.60 39.09 39.86 40.02
53.22 53.14 54.27 53.64 53.40 53.40 53.62 52.81 51.38 49.75 50.12 50.08 49.99 49.62 49.94 50.64 51.28 51.65 50.73 49.59 48.74 48.13 45.69 44.49 42.37 41.38 40.97 39.58 38.76 38.01 37.45 37.25 37.01 34.94 33.18 35.16 36.42 37.46 38.00 37.47 37.20 37.15 39.15
53.61 53.76 53.92 53.85 52.87 53.31 52.09 51.67 51.16 49.59 49.68 49.63 48.78 48.73 48.99 49.53 50.14 50.69 50.43 49.46 48.55 46.80 44.90 42.59 41.38 40.21 39.39 38.78 38.16 37.89 37.16 35.66 35.36 34.17 32.32 31.92 32.29 35.21 35.87 37.61 36.27 36.68 37.48
MSLP
1013.70 1013.72 1014.07 1014.50 1014.87 1015.24 1015.54 1015.95 1016.29 1016.54 1016.73 1016.88 1016.98 1017.09 1017.14 1017.26 1017.32 1017.40 1017.45 1017.51 1017.57 1017.58 1017.59 1017.61 1017.60 1017.60 1017.61 1017.64 1017.67 1017.71 1017.71 1017.63 1017.49 1017.42 1017.38 1017.34 1017.20 1017.06 1016.88 1016.98 1017.12 1017.19 1017.13
1013.06 1013.59 1013.92 1014.33 1014.81 1015.20 1015.70 1016.08 1016.40 1016.63 1016.82 1016.99 1017.10 1017.22 1017.35 1017.43 1017.57 1017.65 1017.72 1017.77 1017.82 1017.85 1017.88 1017.88 1017.87 1017.86 1017.87 1017.89 1017.92 1017.93 1017.87 1017.79 1017.65 1017.49 1017.35 1017.33 1017.20 1017.16 1017.07 1017.06 1017.17 1017.24 1017.18
1013.25 1013.55 1013.96 1014.29 1014.71 1015.38 1015.89 1016.19 1016.45 1016.72 1016.92 1017.11 1017.29 1017.41 1017.59 1017.68 1017.79 1017.84 1017.87 1017.92 1017.99 1018.03 1018.09 1018.12 1018.12 1018.09 1018.07 1018.04 1018.04 1018.00 1017.95 1017.84 1017.74 1017.62 1017.48 1017.30 1017.07 1017.11 1017.10 1017.16 1017.23 1017.20 1017.16
1013.06 1013.66 1014.09 1014.34 1014.82 1015.57 1016.05 1016.30 1016.49 1016.77 1017.03 1017.26 1017.51 1017.63 1017.76 1017.86 1017.96 1018.02 1018.08 1018.14 1018.20 1018.23 1018.34 1018.37 1018.39 1018.32 1018.30 1018.24 1018.17 1018.10 1018.00 1017.90 1017.79 1017.68 1017.54 1017.23 1017.04 1017.19 1017.03 1017.24 1017.33 1017.40 1017.44
1013.22 1013.80 1014.22 1014.32 1015.20 1015.69 1016.10 1016.42 1016.62 1016.87 1017.21 1017.42 1017.64 1017.74 1017.88 1018.00 1018.18 1018.28 1018.38 1018.43 1018.45 1018.50 1018.55 1018.56 1018.58 1018.57 1018.52 1018.41 1018.31 1018.19 1018.10 1018.01 1017.91 1017.81 1017.72 1017.54 1017.48 1017.47 1017.49 1017.59 1017.65 1017.68 1017.65
1013.46 1013.91 1014.19 1014.86 1015.33 1015.79 1016.19 1016.54 1016.85 1017.08 1017.37 1017.55 1017.77 1017.91 1018.05 1018.19 1018.35 1018.54 1018.64 1018.71 1018.71 1018.73 1018.74 1018.77 1018.79 1018.77 1018.72 1018.62 1018.51 1018.36 1018.25 1018.19 1018.20 1018.19 1018.02 1017.80 1017.78 1017.72 1017.82 1017.91 1017.94 1017.96 1017.92
1013.59 1013.99 1014.52 1015.11 1015.44 1015.83 1016.27 1016.67 1016.97 1017.30 1017.50 1017.66 1017.81 1018.06 1018.26 1018.40 1018.58 1018.80 1018.88 1018.94 1018.95 1018.96 1018.97 1018.98 1018.97 1018.94 1018.91 1018.77 1018.67 1018.54 1018.48 1018.35 1018.50 1018.54 1018.50 1018.36 1018.19 1018.01 1018.21 1018.29 1018.26 1018.19 1018.17
1013.54 1014.12 1014.83 1015.20 1015.54 1015.92 1016.34 1016.72 1017.08 1017.35 1017.63 1017.86 1018.02 1018.15 1018.38 1018.59 1018.77 1018.95 1019.15 1019.23 1019.22 1019.25 1019.27 1019.20 1019.20 1019.19 1019.09 1018.93 1018.87 1018.78 1018.72 1018.65 1018.93 1018.77 1018.85 1018.69 1018.41 1018.31 1018.44 1018.53 1018.52 1018.49 1018.42
1013.52 1014.46 1015.03 1015.34 1015.71 1016.08 1016.48 1016.81 1017.15 1017.50 1017.77 1018.09 1018.36 1018.45 1018.62 1018.83 1019.06 1019.19 1019.36 1019.47 1019.51 1019.49 1019.50 1019.46 1019.39 1019.31 1019.21 1019.03 1018.95 1018.88 1018.81 1018.76 1019.07 1019.06 1019.05 1019.01 1018.72 1018.56 1018.71 1018.82 1018.76 1018.73 1018.59
1014.01 1014.70 1015.30 1015.63 1015.94 1016.34 1016.59 1016.98 1017.30 1017.67 1017.97 1018.32 1018.65 1018.88 1019.03 1019.12 1019.27 1019.54 1019.67 1019.69 1019.71 1019.69 1019.63 1019.54 1019.46 1019.40 1019.35 1019.20 1019.12 1019.00 1018.97 1019.17 1019.33 1019.29 1019.32 1019.15 1019.03 1018.83 1018.87 1018.95 1018.95 1018.87 1018.72
1014.22 1014.76 1015.41 1015.83 1016.23 1016.57 1016.77 1017.08 1017.60 1017.86 1018.09 1018.43 1018.75 1019.00 1019.34 1019.58 1019.69 1019.77 1019.77 1019.86 1019.90 1019.84 1019.80 1019.71 1019.55 1019.43 1019.37 1019.32 1019.33 1019.21 1019.20 1019.65 1019.62 1019.59 1019.56 1019.38 1019.29 1019.17 1019.19 1019.23 1019.15 1019.02 1018.84
1013.91 1014.68 1015.35 1015.82 1016.30 1016.60 1016.81 1017.29 1017.76 1018.23 1018.28 1018.51 1018.81 1019.15 1019.44 1019.72 1019.74 1019.80 1019.89 1019.96 1020.01 1020.00 1019.96 1019.85 1019.68 1019.62 1019.64 1019.71 1019.68 1019.49 1019.52 1019.73 1019.91 1019.89 1019.80 1019.61 1019.55 1019.49 1019.45 1019.40 1019.39 1019.28 1019.19
1013.56 1014.35 1015.18 1015.68 1016.09 1016.49 1016.86 1017.35 1017.68 1018.47 1018.49 1018.45 1018.75 1019.03 1019.32 1019.58 1019.90 1020.10 1020.18 1020.27 1020.27 1020.21 1020.29 1020.20 1020.15 1020.10 1019.96 1019.90 1019.81 1019.81 1019.74 1019.95 1020.11 1020.21 1020.02 1019.91 1019.85 1019.77 1019.69 1019.65 1019.65 1019.62 1019.46
1013.40 1014.06 1014.82 1015.42 1015.86 1016.35 1016.85 1017.14 1017.53 1018.30 1018.49 1018.52 1018.63 1018.87 1019.16 1019.68 1020.04 1020.22 1020.31 1020.34 1020.40 1020.49 1020.55 1020.57 1020.50 1020.32 1020.18 1020.06 1020.09 1020.04 1019.93 1020.06 1020.27 1020.52 1020.34 1020.23 1020.16 1020.13 1020.07 1020.03 1020.04 1020.00 1019.88
1013.42 1014.07 1014.65 1015.21 1015.69 1016.07 1016.65 1016.99 1017.20 1017.90 1018.20 1018.22 1018.44 1018.72 1019.04 1019.47 1019.82 1019.98 1020.22 1020.36 1020.50 1020.55 1020.64 1020.71 1020.70 1020.57 1020.49 1020.30 1020.22 1020.26 1020.24 1020.25 1020.48 1020.59 1020.71 1020.51 1020.47 1020.49 1020.46 1020.43 1020.31 1020.23 1020.15
1013.55 1014.15 1014.58 1015.08 1015.48 1015.85 1016.46 1016.86 1016.86 1017.45 1018.19 1018.20 1018.47 1018.74 1018.98 1019.37 1019.76 1019.99 1020.24 1020.51 1020.59 1020.56 1020.66 1020.73 1020.79 1020.76 1020.75 1020.62 1020.53 1020.52 1020.50 1020.42 1020.37 1020.70 1020.84 1020.79 1020.68 1020.71 1020.73 1020.76 1020.73 1020.59 1020.45
1013.33 1014.08 1014.63 1015.04 1015.38 1015.83 1016.25 1016.72 1016.88 1017.16 1018.14 1018.27 1018.45 1018.68 1018.93 1019.20 1019.58 1019.94 1020.30 1020.51 1020.55 1020.57 1020.61 1020.74 1020.79 1020.81 1020.92 1020.78 1020.93 1020.76 1020.63 1020.60 1020.54 1020.69 1020.87 1021.08 1021.13 1021.08 1021.05 1021.07 1021.04 1020.88 1020.71
1012.92 1013.61 1014.48 1014.92 1015.38 1015.75 1016.12 1016.44 1016.84 1017.10 1017.81 1018.35 1018.49 1018.72 1018.89 1019.14 1019.41 1019.85 1020.23 1020.43 1020.46 1020.61 1020.72 1020.92 1021.08 1021.17 1021.26 1021.26 1021.22 1021.12 1020.92 1020.79 1020.73 1020.83 1020.92 1021.11 1021.38 1021.44 1021.40 1021.39 1021.28 1021.10 1020.88
1012.16 1012.97 1014.03 1014.69 1015.25 1015.68 1016.02 1016.29 1016.80 1017.07 1017.74 1018.22 1018.41 1018.76 1018.97 1019.12 1019.36 1019.75 1020.15 1020.30 1020.37 1020.64 1020.83 1020.99 1021.22 1021.37 1021.54 1021.47 1021.28 1021.23 1021.15 1021.12 1021.10 1021.00 1021.14 1021.32 1021.44 1021.58 1021.64 1021.48 1021.39 1021.24 1021.11
1011.85 1012.45 1013.34 1014.39 1015.14 1015.63 1016.02 1016.36 1016.90 1017.35 1017.75 1018.07 1018.37 1018.65 1018.92 1019.17 1019.40 1019.81 1020.13 1020.28 1020.49 1020.81 1021.01 1021.13 1021.34 1021.54 1021.61 1021.60 1021.37 1021.35 1021.42 1021.31 1021.36 1021.43 1021.52 1021.47 1021.64 1021.69 1021.62 1021.57 1021.61 1021.46 1021.18
1011.47 1012.37 1012.93 1013.96 1014.84 1015.45 1015.99 1016.41 1017.02 1017.48 1017.72 1018.18 1018.27 1018.43 1018.79 1019.07 1019.33 1019.78 1020.17 1020.44 1020.68 1020.96 1021.16 1021.31 1021.46 1021.70 1021.87 1021.66 1021.69 1021.89 1021.86 1021.80 1021.87 1021.85 1021.75 1021.81 1021.75 1021.63 1021.62 1021.65 1021.66 1021.53 1021.41
1011.06 1011.92 1012.75 1013.59 1014.51 1015.04 1015.63 1016.06 1016.49 1017.15 1017.46 1017.94 1018.16 1018.45 1018.73 1019.06 1019.34 1019.67 1020.13 1020.54 1020.76 1021.16 1021.41 1021.48 1021.59 1021.97 1022.22 1022.08 1022.39 1022.71 1022.65 1022.54 1022.24 1022.15 1022.12 1022.15 1021.98 1021.99 1021.92 1021.77 1021.62 1021.43 1021.35
1010.79 1011.47 1012.28 1013.11 1014.12 1014.76 1015.31 1016.03 1016.67 1017.32 1017.60 1018.17 1018.43 1018.69 1018.86 1019.04 1019.32 1019.68 1020.16 1020.50 1020.78 1021.22 1021.58 1021.69 1021.79 1022.04 1022.53 1022.50 1022.36 1022.69 1023.12 1023.32 1023.15 1022.69 1022.52 1022.35 1022.41 1022.45 1022.30 1022.04 1021.64 1021.41 1021.21
1010.33 1011.33 1012.08 1013.06 1013.97 1014.73 1015.21 1015.91 1016.42 1016.84 1017.41 1017.90 1018.30 1018.63 1018.96 1019.15 1019.44 1019.72 1020.16 1020.56 1020.87 1021.18 1021.70 1021.75 1021.79 1022.15 1022.44 1022.76 1022.71 1022.71 1022.85 1023.09 1023.49 1023.65 1023.04 1022.65 1022.40 1022.52 1022.45 1021.99 1021.75 1021.44 1021.10
1009.88 1011.22 1012.01 1012.94 1013.96 1014.65 1015.20 1015.63 1016.21 1016.83 1017.21 1017.66 1018.23 1018.71 1019.15 1019.36 1019.46 1019.66 1020.10 1020.53 1021.17 1021.20 1021.67 1021.93 1022.08 1022.27 1022.42 1022.78 1022.95 1023.14 1023.21 1023.29 1023.52 1023.98 1024.03 1023.29 1022.85 1022.60 1022.41 1022.08 1021.78 1021.39 1021.04
1010.13 1011.16 1011.93 1013.02 1013.94 1014.62 1015.20 1015.60 1016.17 1016.55 1017.22 1017.79 1018.24 1018.84 1019.25 1019.44 1019.71 1019.86 1019.89 1020.61 1021.20 1021.38 1021.72 1022.07 1022.22 1022.44 1022.61 1022.77 1022.98 1023.09 1023.31 1023.60 1023.84 1024.09 1024.36 1024.05 1023.84 1023.00 1022.23 1021.57 1021.41 1021.18 1020.95
Wind_Speed
10 14 19 18 20 18 17 14 13 13 12 12 12 12 13 13 13 13 13 13 12 12 12 12 12 11 11 11 10 8 7 8 9 9 7 6 5 2 2 6 8 6 7
15 15 20 21 20 18 16 15 14 13 13 12 13 13 13 13 13 13 12 12 12 12 12 11 11 11 10 10 10 8 8 7 7 9 10 8 7 5 3 5 7 5 7
14 14 17 20 19 18 16 16 15 14 14 13 13 13 12 13 12 12 13 13 13 13 13 12 12 11 11 11 10 9 8 7 8 9 11 5 4 6 3 4 7 7 8
15 13 13 20 20 18 16 16 16 15 14 14 13 13 13 13 13 13 13 13 12 13 13 12 12 13 12 11 11 11 10 10 11 12 5 3 7 7 9 10 10 10 11
15 13 13 21 19 18 17 16 16 16 15 14 14 13 13 13 13 13 13 13 13 13 12 12 12 12 11 11 11 11 11 12 14 8 5 6 6 12 16 14 11 11 11
15 12 16 18 19 18 17 16 16 16 15 15 14 14 13 13 13 13 13 12 12 12 12 12 11 11 11 11 11 11 12 13 11 6 6 10 7 11 12 12 12 10 10
14 12 14 19 19 19 18 17 16 15 15 15 15 14 13 13 13 12 12 12 12 12 12 11 11 11 11 11 11 11 12 13 8 6 6 6 6 10 10 9 10 11 11
15 14 12 16 18 18 18 17 16 16 15 14 14 14 13 13 13 12 12 11 11 11 11 11 11 10 10 10 10 10 11 10 8 6 6 5 8 9 9 10 10 10 10
15 12 9 10 13 16 16 16 16 16 15 14 13 13 14 13 12 12 11 11 11 11 11 10 10 9 10 11 10 10 11 11 6 4 6 4 9 9 9 8 9 9 9
13 12 8 7 7 7 8 14 15 15 14 14 13 13 12 11 11 11 10 10 10 9 9 8 9 8 6 7 9 10 10 13 6 5 4 4 10 8 8 9 8 9 8
12 13 9 9 8 7 8 10 12 14 13 13 11 10 8 4 6 7 8 7 7 6 5 6 7 8 6 3 7 8 9 4 4 4 3 10 9 8 8 9 9 9 11
15 14 12 10 9 9 8 7 7 6 5 5 6 6 4 5 5 6 5 4 3 2 4 6 6 8 7 3 3 6 3 5 4 3 3 10 9 9 8 7 9 10 12
15 12 11 11 11 9 8 5 4 3 3 4 6 6 6 4 3 3 1 2 2 2 3 5 6 4 5 4 4 3 4 5 3 2 5 10 9 9 9 8 8 10 11
15 13 9 12 11 8 6 6 6 4 4 4 5 7 5 3 4 3 2 3 3 3 4 4 3 4 6 5 4 4 4 4 3 2 3 8 9 9 9 9 9 10 10
10 11 8 10 9 9 8 5 5 5 4 5 5 6 5 4 4 3 3 3 3 3 3 4 4 4 5 5 5 4 5 4 5 3 1 7 9 8 8 8 9 9 9
11 11 8 8 8 8 6 6 6 6 4 5 5 5 6 5 4 4 4 3 3 2 2 2 2 3 3 4 5 5 4 4 4 4 3 2 7 7 7 8 8 9 10
13 12 9 8 8 8 8 6 5 5 5 4 4 6 7 6 5 6 4 3 2 2 4 4 4 4 5 4 5 4 4 4 4 5 3 2 3 5 7 8 8 9 9
16 16 12 9 9 8 7 6 4 5 5 4 5 5 6 6 6 4 4 3 2 2 2 3 3 3 3 3 3 3 3 4 4 4 5 4 2 2 5 6 8 8 8
19 18 15 10 11 8 7 6 6 7 5 4 5 4 5 6 6 5 4 3 3 3 3 2 3 2 2 3 3 1 2 3 4 3 5 5 5 4 2 4 7 6 7
16 17 16 11 10 8 6 5 4 4 4 4 4 5 6 5 6 5 4 4 4 4 3 3 3 3 2 2 2 2 1 1 2 3 4 4 4 4 2 3 4 4 8
17 17 17 14 11 9 6 7 5 4 4 3 4 7 6 5 5 5 3 4 4 3 3 2 2 3 4 4 3 4 3 3 3 3 3 3 3 1 2 1 1 2 3
18 18 16 15 13 10 6 3 4 4 3 3 3 5 6 6 6 5 5 4 4 3 4 3 4 2 2 4 3 2 2 4 4 3 3 2 1 3 4 3 4 2 2
18 19 17 15 14 11 10 5 4 4 4 3 2 3 3 5 6 6 6 5 5 4 3 2 3 4 2 3 5 4 2 2 2 3 2 2 4 3 4 5 5 4 3
16 15 15 14 13 10 10 7 10 6 6 4 3 3 3 5 6 6 6 5 4 4 4 3 3 2 3 2 2 3 2 3 2 3 3 3 4 5 6 5 5 5 5
17 15 14 14 12 10 10 10 8 6 3 4 4 7 5 5 6 6 6 6 4 4 4 4 4 3 2 2 2 1 3 3 3 2 4 5 3 2 4 3 5 5 5
14 15 14 14 11 11 10 9 8 9 7 7 5 5 4 3 3 4 6 5 4 5 4 3 3 4 3 3 2 2 2 2 1 1 1 3 4 5 4 7 5 5 5
Wind_Direction
149 150 146 142 135 131 119 125 119 116 112 107 104 100 96 92 89 84 81 78 74 70 67 65 65 65 65 65 62 54 35 17 3 352 348 343 330 338 64 71 51 37 46
140 145 145 140 136 124 134 127 125 121 116 111 105 99 96 91 87 84 82 80 78 75 72 69 67 66 65 64 59 49 35 19 1 341 333 331 317 305 339 50 75 46 36
136 143 139 137 127 129 133 132 127 124 118 111 106 101 96 93 90 88 86 82 80 76 71 67 63 61 62 56 50 42 29 14 1 344 333 307 254 240 272 85 73 44 41
135 136 134 130 122 138 136 132 130 124 121 113 109 106 101 96 92 88 81 77 76 73 68 65 62 59 56 50 45 37 28 17 2 351 352 27 67 73 66 77 66 58 54
128 130 137 117 140 139 136 135 131 128 121 118 114 110 105 98 92 87 82 77 74 71 68 66 63 59 54 48 40 34 28 17 12 24 51 50 56 59 62 66 63 53 50
128 129 121 136 140 137 136 135 133 127 124 120 115 110 104 98 92 87 82 77 74 69 65 61 59 56 51 45 37 29 24 17 24 31 43 41 42 55 56 47 43 40 36
127 127 123 143 139 138 137 137 133 130 126 123 118 110 104 99 92 86 80 74 70 66 62 60 56 51 46 40 32 25 24 17 36 67 47 44 41 48 46 40 36 38 38
127 123 141 142 140 139 138 137 135 132 127 123 119 112 108 100 95 89 82 76 72 68 62 60 58 55 48 42 31 24 21 15 42 67 44 37 30 53 51 42 37 27 21
125 129 135 137 138 137 137 137 136 132 128 124 119 115 109 104 96 90 85 79 73 68 62 59 60 58 45 40 39 25 8 10 69 62 57 33 34 56 54 45 33 21 12
131 130 127 119 120 120 132 133 130 131 130 127 125 121 117 108 97 93 81 80 75 70 65 62 60 48 26 8 16 18 23 49 83 74 49 47 39 33 38 40 30 16 12
142 136 137 135 130 120 117 125 126 132 134 137 140 140 110 101 106 103 104 96 87 71 52 40 35 31 43 343 352 1 40 60 83 73 58 56 43 36 41 37 34 34 41
148 144 152 150 144 140 134 125 128 145 144 151 146 133 133 145 141 124 128 116 79 17 341 353 343 24 43 36 26 33 26 62 95 84 66 65 47 42 31 47 31 30 35
150 152 165 154 152 147 147 146 142 157 162 166 149 156 157 112 90 106 98 27 5 47 17 34 27 25 26 35 17 35 28 57 86 57 78 70 55 44 42 41 36 30 28
148 155 154 153 152 148 156 159 157 162 182 168 147 144 123 118 120 135 117 103 66 32 43 33 27 19 18 18 35 23 49 59 104 81 77 80 66 49 47 43 34 28 21
144 146 150 143 147 153 156 164 151 155 161 146 139 129 130 124 119 115 101 83 67 53 49 32 20 15 14 5 22 31 42 36 96 122 84 93 81 64 52 44 41 35 28
157 158 151 143 146 148 142 157 153 131 157 139 126 140 134 132 129 117 101 90 71 62 32 37 33 29 14 18 24 26 48 45 53 128 130 110 98 81 63 49 37 31 24
165 156 159 147 150 146 149 147 142 138 147 138 140 130 139 135 133 128 118 101 91 51 48 40 25 37 33 13 29 18 40 24 49 86 139 106 68 66 62 45 32 20 15
163 160 162 161 163 151 155 137 138 134 130 149 141 137 140 142 134 121 118 121 105 79 77 57 40 37 40 31 2 344 48 44 37 53 85 99 100 64 46 36 19 14 9
169 158 164 160 167 159 152 139 141 133 129 153 139 143 150 142 132 123 134 131 106 71 64 49 46 78 46 356 344 35 44 62 52 71 69 83 81 74 74 19 14 11 352
166 167 160 159 166 159 144 132 127 129 143 146 150 158 153 148 133 125 127 129 94 93 71 57 54 37 80 333 352 9 340 88 81 68 67 83 85 78 42 11 3 343 349
163 165 162 164 168 160 152 150 149 159 142 146 157 157 150 155 144 126 127 119 102 103 104 84 77 65 17 355 45 15 1 23 56 68 94 100 85 41 9 359 326 336 333
166 168 164 163 167 168 157 147 131 141 139 142 144 142 143 144 144 133 125 124 110 94 86 74 64 73 47 15 98 80 34 341 2 21 31 52 21 339 350 328 320 338 326
168 167 169 157 164 166 151 120 94 79 78 91 132 121 153 147 137 119 123 128 111 108 116 102 91 84 100 12 54 134 92 210 337 337 16 15 31 354 343 321 306 307 299
165 162 156 152 160 166 147 155 166 163 153 164 150 143 132 132 129 117 120 119 126 116 115 124 108 100 113 81 19 38 85 141 136 337 326 319 352 350 334 322 318 304 291
148 158 156 154 164 162 169 167 162 141 136 136 129 131 131 122 131 128 128 119 131 111 110 108 88 88 88 116 115 65 41 40 70 125 275 309 331 253 277 279 285 290 293
148 149 152 159 163 166 171 157 158 151 151 140 139 139 147 130 119 127 126 123 125 116 117 120 110 103 101 96 102 97 121 130 194 125 258 288 254 295 313 309 313 308 285